CW6242 Weather Reports


time (UTC)temp
F
wind
direction
speed
knots
gust
knots
rain 1hr
in
rain 24hr
in
rain mn
in
humidity
%
barometer
mb
20260504141018 65 45 0.9 6.1 0.00 0.00 0.00 55 1017.3
20260504081057 65 0.0 0.0 0.00 0.00 0.00 62 1019.8
20260504050017 57 0.0 2.6 0.00 0.00 0.00 62 1019.2
20260504045016 57 0.0 0.0 0.00 0.00 0.00 61 1019.2
20260504044016 57 0.0 0.0 0.00 0.00 0.00 62 1019.0
20260504043036 56 0.0 0.0 0.00 0.00 0.00 62 1018.8
20260504042037 57 0.0 0.0 0.00 0.00 0.00 62 1018.7
20260504041036 57 0.0 0.0 0.00 0.00 0.00 60 1018.7
20260504040017 56 0.0 0.0 0.00 0.00 0.00 61 1018.5
20260504035016 57 0.0 0.0 0.00 0.00 0.00 62 1018.5
20260504034016 57 0.0 0.0 0.00 0.00 0.00 63 1018.6
20260504033016 57 0.0 0.0 0.00 0.00 0.00 63 1018.6
20260504032016 57 0.0 0.0 0.00 0.00 0.00 61 1018.7
20260504031016 57 0.0 0.0 0.00 0.00 0.00 61 1018.6
20260504030016 56 0.0 0.0 0.00 0.00 0.00 63 1018.6
20260504025016 56 0.0 0.0 0.00 0.00 0.00 65 1018.7
20260504024036 56 0.0 0.0 0.00 0.00 0.00 66 1018.8
20260504023016 55 0.0 0.0 0.00 0.00 0.00 67 1018.9
20260504022017 55 0.0 0.0 0.00 0.00 0.00 68 1018.9
20260504021016 55 0.0 0.0 0.00 0.00 0.00 70 1018.9
20260504020136 55 0.0 0.0 0.00 0.00 0.00 71 1019.0
20260504015016 55 0.0 0.0 0.00 0.00 0.00 72 1018.9
20260504014016 55 0.0 0.0 0.00 0.00 0.00 72 1018.9
20260504013016 55 0.0 0.0 0.00 0.00 0.00 73 1018.9
20260504012016 55 0.0 0.0 0.00 0.00 0.00 73 1018.9
20260504011016 55 0.0 0.0 0.00 0.00 0.00 72 1019.0
20260504010016 55 0.0 0.9 0.00 0.00 0.00 72 1018.9
20260504005016 54 0.0 0.0 0.00 0.00 0.00 71 1018.9
20260504004036 54 0.0 0.0 0.00 0.00 0.00 71 1019.0
20260504003056 55 0.0 0.0 0.00 0.00 0.00 70 1019.0
20260504002016 56 0.0 0.0 0.00 0.00 0.00 72 1019.1
20260504001136 56 0.0 0.0 0.00 0.00 0.00 72 1019.1
20260504000016 56 0.0 0.0 0.00 0.00 0.00 72 1019.1
20260503235016 56 0.0 0.0 0.00 0.00 0.00 72 1019.1
20260503234036 56 0.0 0.0 0.00 0.00 0.00 71 1019.2
20260503233016 56 0.0 0.0 0.00 0.00 0.00 69 1019.2
20260503232016 55 0.0 0.0 0.00 0.00 0.00 67 1019.3
20260503231018 55 0.0 0.0 0.00 0.00 0.00 68 1019.5
20260503230018 55 0.0 0.0 0.00 0.00 0.00 67 1019.5
20260503225018 55 0.0 0.0 0.00 0.00 0.00 67 1019.7
20260503224018 55 0.0 0.0 0.00 0.00 0.00 66 1019.8
20260503223018 55 0.0 0.0 0.00 0.00 0.00 67 1019.7
20260503222018 56 0.0 0.0 0.00 0.00 0.00 71 1019.8
20260503221018 56 0.0 0.0 0.00 0.00 0.00 69 1019.9
20260503220017 56 0.0 0.0 0.00 0.00 0.00 67 1019.9
20260503215017 56 0.0 0.0 0.00 0.00 0.00 64 1019.8
20260503214017 55 0.0 0.9 0.00 0.00 0.00 65 1019.7
20260503213037 55 0.0 0.9 0.00 0.00 0.00 64 1019.7
20260503212017 56 0.0 0.0 0.00 0.00 0.00 64 1019.8
20260503211017 57 0.0 0.0 0.00 0.00 0.00 67 1019.9
20260503210017 56 0.0 0.0 0.00 0.00 0.00 68 1019.8
20260503205016 56 0.0 0.0 0.00 0.00 0.00 67 1019.8
20260503204016 57 0.0 0.0 0.00 0.00 0.00 65 1019.9
20260503203017 57 0.0 0.0 0.00 0.00 0.00 64 1019.8
20260503202037 57 0.0 0.0 0.00 0.00 0.00 62 1019.5
20260503201017 58 0.0 0.0 0.00 0.00 0.00 60 1019.6
20260503200017 58 0.0 0.0 0.00 0.00 0.00 58 1019.7
20260503195017 58 0.0 0.0 0.00 0.00 0.00 57 1019.6
20260503194017 58 0.0 0.0 0.00 0.00 0.00 57 1019.6
20260503193017 58 0.0 2.6 0.00 0.00 0.00 58 1019.7
20260503192057 58 0.0 0.0 0.00 0.00 0.00 55 1019.7
20260503191016 59 0.0 0.0 0.00 0.00 0.00 53 1019.6
20260503190036 58 0.0 0.0 0.00 0.00 0.00 54 1019.4
20260503185017 58 0.0 4.3 0.00 0.00 0.00 54 1019.2
20260503184036 58 113 0.9 7.8 0.00 0.00 0.00 53 1018.9
20260503183017 58 0.0 0.9 0.00 0.00 0.00 49 1019.0
20260503182017 58 0.0 2.6 0.00 0.00 0.00 47 1019.1
20260503181017 58 113 0.9 8.7 0.00 0.00 0.00 49 1019.0
20260503180037 58 0.0 0.0 0.00 0.00 0.00 54 1019.1
20260503175016 58 0.0 0.0 0.00 0.00 0.00 64 1019.1
20260503174016 58 0.0 4.3 0.00 0.00 0.00 64 1019.0
20260503173016 58 0 0.9 7.0 0.00 0.00 0.00 62 1018.8
20260503172016 59 0.0 8.7 0.00 0.00 0.00 60 1018.7
20260503171017 59 0.0 7.8 0.00 0.00 0.00 58 1018.7